+ View the NASA Portal
+ Center for Near-Earth Object Studies
IMPORTANT:
The SSD Announcement email list is now available. Major changes are coming in the near future, including possible hostname and/or URL changes. To be notified of such changes, subscribe to this email list.
Please visit
this page
for more details.
Don't show this message again
JPL Small-Body Database Browser
Search:
[
help
]
243107 (2007 RV109)
Classification:
Main-belt Asteroid
SPK-ID:
2243107
[
Ephemeris
|
Orbit Diagram
|
Orbital Elements
|
Mission Design
|
Physical Parameters
|
Discovery Circumstances
|
Close-Approach Data
]
[ show orbit diagram ]
Orbital Elements at Epoch 2458600.5 (2019-Apr-27.0) TDB
Reference:
JPL 12
(heliocentric ecliptic J2000)
Element
Value
Uncertainty (1-sigma)
Units
e
.1985072063071475
6.8946e-08
a
2.313397241816868
1.7155e-08
au
q
1.854171218265141
1.5645e-07
au
i
2.52148399924081
7.6289e-06
deg
node
194.9422328673072
0.00011218
deg
peri
112.7605508609186
0.0001139
deg
M
145.3982496015462
1.962e-05
deg
t
p
2458081.424627231593
(2017-Nov-23.92462723)
6.7862e-05
TDB
period
1285.208967155541
3.52
1.4296e-05
3.914e-08
d
yr
n
.2801100904211412
3.1158e-09
deg/d
Q
2.772623265368595
2.0561e-08
au
Orbit Determination Parameters
# obs. used (total)
236
data-arc span
7207 days (19.73 yr)
first obs. used
1999-03-20
last obs. used
2018-12-12
planetary ephem.
DE431
SB-pert. ephem.
SB431-N16
condition code
0
norm. resid. RMS
.65548
source
ORB
producer
Otto Matic
solution date
2019-Jul-14 09:32:41
Additional Information
Earth MOID
= .840446 au
Jupiter MOID
= 2.48378 au
T_jup
= 3.555
[ show covariance matrix ]
[
Ephemeris
|
Orbit Diagram
|
Orbital Elements
|
Mission Design
|
Physical Parameters
|
Discovery Circumstances
|
Close-Approach Data
]
Physical Parameter Table
Parameter
Symbol
Value
Units
Sigma
Reference
Notes
absolute magnitude
H
17.4
n/a
MPO413137
243107 (2007 RV109)
Discovered 2007-Sep-11 by Spacewatch at Kitt Peak
Reference:
20100626/Numbers.arc
Last Updated:
2010-06-28
[ show close-approach data ]
Alternate Designations
2007 RV109
= 1999 FE69 = 2006 DG84
[
Ephemeris
|
Orbit Diagram
|
Orbital Elements
|
Mission Design
|
Physical Parameters
|
Discovery Circumstances
|
Close-Approach Data
]
2019-Dec-08 00:28 UT
(server date/time)
Site Manager:
Ryan S. Park
Webmaster
:
Alan B. Chamberlin